Location: Wells
(51.2093°N, 2.6446°W)
Time: 08:36:42
(UTC+01:00)

SO-50 - Pass Details

Date: 18 March 2026
Orbit: 567 x 673 km, 64.6° (Epoch: 17 April)

Event Time Altitude Azimuth Distance (km) Brightness Sun altitude
Rises 19:09:24 0° 251° (WSW) 2,958 ? -8.5°
Reaches altitude 10° 19:11:51 10° 260° (W) 2,066 ? -8.9°
Maximum altitude 19:16:10 35° 327° (NNW) 1,081 ? -9.5°
Drops below altitude 10° 19:20:35 10° 33° (NNE) 2,110 ? -10.2°
Sets 19:23:06 0° 43° (NE) 3,031 ? -10.6°
